Printer-friendly version

IAU Minor Planet Center

Minor Planet Center

MPEC 2006-F27 : 2006 FK

The following Minor Planet Electronic Circular may be linked-to from your own Web pages, but must not otherwise be redistributed electronically.


Read MPEC 2006-F26 Read MPEC 2006-F28


M.P.E.C. 2006-F27                                Issued 2006 Mar. 24, 16:24 UT

     The Minor Planet Electronic Circulars contain information on unusual
         minor planets and routine data on comets.  They are published
   on behalf of Commission 20 of the International Astronomical Union by the
          Minor Planet Center, Smithsonian Astrophysical Observatory,
                          Cambridge, MA 02138, U.S.A.

                  Supported in part by the Brinson Foundation
                  Supported in part by the TABASGO Foundation
             Prepared using the Tamkin Foundation Computer Network

                              MPC@CFA.HARVARD.EDU
          URL http://cfa-www.harvard.edu/iau/mpc.html  ISSN 1523-6714

                                    2006 FK

Observations:
     K06F00K* C2006 03 23.34499 13 13 59.98 +07 56 56.3          18.9 V EF027703
     K06F00K  C2006 03 23.35412 13 13 56.78 +07 56 50.2          19.6 V EF027703
     K06F00K  C2006 03 23.36325 13 13 53.54 +07 56 44.1          19.6 V EF027703
     K06F00K  C2006 03 23.37238 13 13 50.34 +07 56 37.4          19.1 V EF027703
     K06F00K  C2006 03 23.93565 13 10 37.58 +07 49 42.6                 EF027246
     K06F00K  C2006 03 23.93793 13 10 36.81 +07 49 40.5                 EF027246
     K06F00K  C2006 03 23.93856 13 10 36.56 +07 49 39.5                 EF027246
     K06F00K  C2006 03 23.94229 13 10 35.25 +07 49 36.5                 EF027246
     K06F00K  C2006 03 23.94871 13 10 32.99 +07 49 32.6                 EF027246
     K06F00K  C2006 03 23.96014 13 10 28.92 +07 49 22.9          19.6 V EF027A44
     K06F00K  C2006 03 23.97051 13 10 25.27 +07 49 15.9          19.5 V EF027A44
     K06F00K  C2006 03 23.97801 13 10 22.56 +07 49 10.1          19.4 V EF027A44
     K06F00K  C2006 03 24.25308 13 08 47.88 +07 45 52.2          19.2 R EF027734
     K06F00K  C2006 03 24.25541 13 08 47.07 +07 45 51.0          19.1 R EF027734
     K06F00K  C2006 03 24.25774 13 08 46.23 +07 45 48.0          19.1 R EF027734
     K06F00K 5C2006 03 24.31644 13 08 26.03 +07 45 07.7          19.5 R EF027673
     K06F00K 5C2006 03 24.31933 13 08 24.96 +07 45 05.6                 EF027673
     K06F00K 5C2006 03 24.32396 13 08 23.24 +07 45 02.1                 EF027673
     K06F00K 5C2006 03 24.33125 13 08 20.57 +07 44 56.6                 EF027673
     K06F00K  C2006 03 24.35074 13 08 13.22 +07 44 42.5          19.6 R EF027854
     K06F00K  C2006 03 24.35362 13 08 12.50 +07 44 41.4          19.6 R EF027854
     K06F00K  C2006 03 24.35649 13 08 11.40 +07 44 39.1          19.7 R EF027854

Observer details:
246 Klet Observatory-KLENOT.  Observer M. Tichy.  1.06-m KLENOT Telescope
    + CCD.
673 Table Mountain Observatory, Wrightwood.  Observer J. Young.  0.6-m f/16
    Cassegrain + CCD.
703 Catalina Sky Survey.  Observer A. R. Gibbs.  Measurers E. C. Beshore,
    E. J. Christensen, G. J. Garradd, A. R. Gibbs, A. D. Grauer, R. E. Hill,
    R. A. Kowalski, S. M. Larson, R. H. McNaught.  0.68-m Schmidt + CCD.
734 Farpoint Observatory.  Observer G. Hug.  Measurer D. Tibbets.  0.7-m
    reflector + CCD.
854 Sabino Canyon Observatory, Tucson.  Observer J. E. McGaha.  0.36-m f/10.0
    Schmidt-Cassegrain + CCD.
A44 Altschwendt.  Observer W. Ries.  0.30-m f/6 reflector + CCD.

Orbital elements:
2006 FK                                                  Earth MOID = 0.2047 AU
Epoch 2006 Mar. 6.0 TT = JDT 2453800.5                  MPC
M 135.71723              (2000.0)            P               Q
n   1.11734017     Peri.    2.12345     +0.95606679     -0.28497111
a   0.9197697      Node    14.99039     +0.26488904     +0.73932361
e   0.3529090      Incl.   15.41627     +0.12557904     +0.61007546
P   0.88           H   21.4           G   0.15           U   9
Residuals in seconds of arc
060323 703  0.2-  0.6-    060323 246  0.9+  0.2+    060324 673  1.0+  0.0
060323 703  0.4+  0.3-    060323 A44  0.3+  1.5-    060324 673  0.1+  0.0
060323 703  0.5+  0.1+    060323 A44  0.8+  0.9-    060324 673  0.7-  0.1-
060323 703  1.2+  0.1-    060323 A44  0.1+  1.3-    060324 854 (2.3-  0.9-)
060323 246  0.3+  0.7+    060324 734  0.2+  0.3-    060324 854 (2.4+  0.1+)
060323 246  0.9+  0.2+    060324 734  0.5+  0.2+    060324 854  1.4+  0.0
060323 246  0.5+  0.3-    060324 734  0.4+  1.0-
060323 246  0.6+  0.6-    060324 673  1.5+  0.0

Ephemeris:
2006 FK                  a,e,i = 0.92, 0.35, 15                  q = 0.5952
Date    TT    R. A. (2000) Decl.     Delta      r     Elong.  Phase     V
2006 03 16    13 52.96   +09 06.5    0.254    1.215   146.7    26.7    20.0
2006 03 26    12 58.64   +07 23.5    0.239    1.231   166.3    11.1    19.4
2006 04 05    12 01.61   +04 42.4    0.250    1.241   162.9    13.7    19.6
2006 04 15    11 16.65   +01 41.7    0.283    1.244   144.5    27.9    20.4
2006 04 25    10 48.23   -01 04.0    0.331    1.241   128.8    39.2    21.0
2006 05 05    10 33.49   -03 30.5    0.387    1.230   116.5    47.2    21.6
2006 05 15    10 28.26   -05 45.3    0.443    1.213   106.5    53.0    22.0

Timothy B. Spahr             (C) Copyright 2006 MPC           M.P.E.C. 2006-F27

Read MPEC 2006-F26 Read MPEC 2006-F28


Our Web policy. Index to the CBAT/MPC/ICQ pages.


Valid HTML 4.01!